Year,Month,Day,Hour,Minute,Value (Times are PST for temperature in C)
2016,03,30,00,00,9.20
2016,03,30,00,01,9.20
2016,03,30,00,02,9.10
2016,03,30,00,03,9.10
2016,03,30,00,04,9.10
2016,03,30,00,05,9.10
2016,03,30,00,06,9.00
2016,03,30,00,07,9.00
2016,03,30,00,08,9.10
2016,03,30,00,09,9.10
2016,03,30,00,10,9.20
2016,03,30,00,11,9.30
2016,03,30,00,12,9.30
2016,03,30,00,13,9.30
2016,03,30,00,14,9.30
2016,03,30,00,15,9.20
2016,03,30,00,16,9.20
2016,03,30,00,17,9.10
2016,03,30,00,18,9.00
2016,03,30,00,19,9.00
2016,03,30,00,20,8.90
2016,03,30,00,21,8.90
2016,03,30,00,22,8.90
2016,03,30,00,23,8.90
2016,03,30,00,24,8.80
2016,03,30,00,25,8.80
2016,03,30,00,26,8.70
2016,03,30,00,27,8.70
2016,03,30,00,28,8.60
2016,03,30,00,29,8.50
2016,03,30,00,30,8.50
2016,03,30,00,31,8.50
2016,03,30,00,32,8.60
2016,03,30,00,33,8.60
2016,03,30,00,34,8.70
2016,03,30,00,35,8.80
2016,03,30,00,36,8.90
2016,03,30,00,37,8.90
2016,03,30,00,38,8.90
2016,03,30,00,39,9.00
2016,03,30,00,40,9.10
2016,03,30,00,41,9.10
2016,03,30,00,42,9.20
2016,03,30,00,43,9.20
2016,03,30,00,44,9.20
2016,03,30,00,45,9.20
2016,03,30,00,46,9.10
2016,03,30,00,47,9.00
2016,03,30,00,48,8.90
2016,03,30,00,49,8.80
2016,03,30,00,50,8.70
2016,03,30,00,51,8.70
2016,03,30,00,52,8.80
2016,03,30,00,53,8.80
2016,03,30,00,54,8.90
2016,03,30,00,55,8.90
2016,03,30,00,56,8.90
2016,03,30,00,57,8.90
2016,03,30,00,58,8.90
2016,03,30,00,59,8.90
2016,03,30,01,00,8.90
2016,03,30,01,01,8.90
2016,03,30,01,02,8.90
2016,03,30,01,03,8.90
2016,03,30,01,04,8.90
2016,03,30,01,05,8.90
2016,03,30,01,06,8.90
2016,03,30,01,07,8.80
2016,03,30,01,08,8.80
2016,03,30,01,09,8.70
2016,03,30,01,10,8.70
2016,03,30,01,11,8.60
2016,03,30,01,12,8.60
2016,03,30,01,13,8.50
2016,03,30,01,14,8.50
2016,03,30,01,15,8.60
2016,03,30,01,16,8.60
2016,03,30,01,17,8.60
2016,03,30,01,18,8.60
2016,03,30,01,19,8.70
2016,03,30,01,20,8.70
2016,03,30,01,21,8.70
2016,03,30,01,22,8.80
2016,03,30,01,23,8.80
2016,03,30,01,24,8.80
2016,03,30,01,25,8.80
2016,03,30,01,26,8.80
2016,03,30,01,27,8.80
2016,03,30,01,28,8.90
2016,03,30,01,29,8.90
2016,03,30,01,30,8.90
2016,03,30,01,31,9.00
2016,03,30,01,32,9.00
2016,03,30,01,33,8.90
2016,03,30,01,34,8.90
2016,03,30,01,35,8.90
2016,03,30,01,36,8.90
2016,03,30,01,37,8.90
2016,03,30,01,38,8.90
2016,03,30,01,39,8.90
2016,03,30,01,40,9.00
2016,03,30,01,41,9.00
2016,03,30,01,42,9.00
2016,03,30,01,43,9.10
2016,03,30,01,44,9.10
2016,03,30,01,45,9.10
2016,03,30,01,46,9.10
2016,03,30,01,47,9.00
2016,03,30,01,48,9.00
2016,03,30,01,49,8.90
2016,03,30,01,50,8.80
2016,03,30,01,51,8.80
2016,03,30,01,52,8.70
2016,03,30,01,53,8.70
2016,03,30,01,54,8.60
2016,03,30,01,55,8.50
2016,03,30,01,56,8.50
2016,03,30,01,57,8.40
2016,03,30,01,58,8.40
2016,03,30,01,59,8.30
2016,03,30,02,00,8.30
2016,03,30,02,01,8.20
2016,03,30,02,02,8.20
2016,03,30,02,03,8.20
2016,03,30,02,04,8.10
2016,03,30,02,05,8.10
2016,03,30,02,06,8.10
2016,03,30,02,07,8.10
2016,03,30,02,08,8.10
2016,03,30,02,09,8.10
2016,03,30,02,10,8.20
2016,03,30,02,11,8.20
2016,03,30,02,12,8.20
2016,03,30,02,13,8.20
2016,03,30,02,14,8.20
2016,03,30,02,15,8.20
2016,03,30,02,16,8.10
2016,03,30,02,17,8.00
2016,03,30,02,18,8.00
2016,03,30,02,19,7.90
2016,03,30,02,20,7.90
2016,03,30,02,21,7.90
2016,03,30,02,22,7.90
2016,03,30,02,23,7.90
2016,03,30,02,24,7.90
2016,03,30,02,25,7.90
2016,03,30,02,26,7.90
2016,03,30,02,27,7.80
2016,03,30,02,28,7.80
2016,03,30,02,29,7.70
2016,03,30,02,30,7.70
2016,03,30,02,31,7.60
2016,03,30,02,32,7.50
2016,03,30,02,33,7.50
2016,03,30,02,34,7.40
2016,03,30,02,35,7.40
2016,03,30,02,36,7.40
2016,03,30,02,37,7.30
2016,03,30,02,38,7.30
2016,03,30,02,39,7.20
2016,03,30,02,40,7.20
2016,03,30,02,41,7.20
2016,03,30,02,42,7.30
2016,03,30,02,43,7.50
2016,03,30,02,44,7.60
2016,03,30,02,45,7.60
2016,03,30,02,46,7.50
2016,03,30,02,47,7.40
2016,03,30,02,48,7.40
2016,03,30,02,49,7.30
2016,03,30,02,50,7.20
2016,03,30,02,51,7.10
2016,03,30,02,52,7.10
2016,03,30,02,53,7.00
2016,03,30,02,54,7.00
2016,03,30,02,55,6.90
2016,03,30,02,56,6.80
2016,03,30,02,57,6.80
2016,03,30,02,58,6.70
2016,03,30,02,59,6.70
2016,03,30,03,00,6.70
2016,03,30,03,01,6.70
2016,03,30,03,02,6.80
2016,03,30,03,03,6.80
2016,03,30,03,04,6.80
2016,03,30,03,05,6.80
2016,03,30,03,06,6.80
2016,03,30,03,07,6.70
2016,03,30,03,08,6.60
2016,03,30,03,09,6.50
2016,03,30,03,10,6.50
2016,03,30,03,11,6.40
2016,03,30,03,12,6.30
2016,03,30,03,13,6.30
2016,03,30,03,14,6.30
2016,03,30,03,15,6.30
2016,03,30,03,16,6.30
2016,03,30,03,17,6.30
2016,03,30,03,18,6.30
2016,03,30,03,19,6.30
2016,03,30,03,20,6.20
2016,03,30,03,21,6.20
2016,03,30,03,22,6.20
2016,03,30,03,23,6.10
2016,03,30,03,24,6.10
2016,03,30,03,25,6.10
2016,03,30,03,26,6.00
2016,03,30,03,27,6.00
2016,03,30,03,28,5.90
2016,03,30,03,29,5.90
2016,03,30,03,30,5.90
2016,03,30,03,31,6.00
2016,03,30,03,32,6.00
2016,03,30,03,33,6.10
2016,03,30,03,34,6.20
2016,03,30,03,35,6.30
2016,03,30,03,36,6.30
2016,03,30,03,37,6.40
2016,03,30,03,38,6.50
2016,03,30,03,39,6.50
2016,03,30,03,40,6.50
2016,03,30,03,41,6.40
2016,03,30,03,42,6.30
2016,03,30,03,43,6.30
2016,03,30,03,44,6.30
2016,03,30,03,45,6.40
2016,03,30,03,46,6.40
2016,03,30,03,47,6.30
2016,03,30,03,48,6.30
2016,03,30,03,49,6.20
2016,03,30,03,50,6.20
2016,03,30,03,51,6.20
2016,03,30,03,52,6.20
2016,03,30,03,53,6.20
2016,03,30,03,54,6.20
2016,03,30,03,55,6.30
2016,03,30,03,56,6.30
2016,03,30,03,57,6.30
2016,03,30,03,58,6.30
2016,03,30,03,59,6.30
2016,03,30,04,00,6.40
2016,03,30,04,01,6.30
2016,03,30,04,02,6.30
2016,03,30,04,03,6.30
2016,03,30,04,04,6.20
2016,03,30,04,05,6.10
2016,03,30,04,06,6.00
2016,03,30,04,07,6.10
2016,03,30,04,08,6.20
2016,03,30,04,09,6.30
2016,03,30,04,10,6.30
2016,03,30,04,11,6.30
2016,03,30,04,12,6.30
2016,03,30,04,13,6.30
2016,03,30,04,14,6.20
2016,03,30,04,15,6.10
2016,03,30,04,16,6.00
2016,03,30,04,17,5.90
2016,03,30,04,18,5.80
2016,03,30,04,19,5.70
2016,03,30,04,20,5.60
2016,03,30,04,21,5.60
2016,03,30,04,22,5.50
2016,03,30,04,23,5.50
2016,03,30,04,24,5.40
2016,03,30,04,25,5.40
2016,03,30,04,26,5.40
2016,03,30,04,27,5.40
2016,03,30,04,28,5.40
2016,03,30,04,29,5.30
2016,03,30,04,30,5.30
2016,03,30,04,31,5.30
2016,03,30,04,32,5.30
2016,03,30,04,33,5.30
2016,03,30,04,34,5.20
2016,03,30,04,35,5.20
2016,03,30,04,36,5.20
2016,03,30,04,37,5.20
2016,03,30,04,38,5.40
2016,03,30,04,39,5.50
2016,03,30,04,40,5.60
2016,03,30,04,41,5.60
2016,03,30,04,42,5.60
2016,03,30,04,43,5.70
2016,03,30,04,44,5.80
2016,03,30,04,45,5.80
2016,03,30,04,46,5.80
2016,03,30,04,47,5.80
2016,03,30,04,48,5.80
2016,03,30,04,49,5.80
2016,03,30,04,50,5.80
2016,03,30,04,51,5.70
2016,03,30,04,52,5.70
2016,03,30,04,53,5.70
2016,03,30,04,54,5.70
2016,03,30,04,55,5.70
2016,03,30,04,56,5.70
2016,03,30,04,57,5.80
2016,03,30,04,58,5.80
2016,03,30,04,59,5.80
2016,03,30,05,00,5.80
2016,03,30,05,01,5.80
2016,03,30,05,02,5.70
2016,03,30,05,03,5.70
2016,03,30,05,04,5.70
2016,03,30,05,05,5.60
2016,03,30,05,06,5.50
2016,03,30,05,07,5.40
2016,03,30,05,08,5.30
2016,03,30,05,09,5.30
2016,03,30,05,10,5.40
2016,03,30,05,11,5.60
2016,03,30,05,12,5.70
2016,03,30,05,13,5.80
2016,03,30,05,14,5.80
2016,03,30,05,15,5.80
2016,03,30,05,16,5.80
2016,03,30,05,17,5.70
2016,03,30,05,18,5.70
2016,03,30,05,19,5.60
2016,03,30,05,20,5.60
2016,03,30,05,21,5.60
2016,03,30,05,22,5.50
2016,03,30,05,23,5.40
2016,03,30,05,24,5.40
2016,03,30,05,25,5.30
2016,03,30,05,26,5.20
2016,03,30,05,27,5.10
2016,03,30,05,28,5.00
2016,03,30,05,29,5.00
2016,03,30,05,30,4.90
2016,03,30,05,31,4.90
2016,03,30,05,32,4.90
2016,03,30,05,33,5.00
2016,03,30,05,34,5.00
2016,03,30,05,35,5.10
2016,03,30,05,36,5.10
2016,03,30,05,37,5.10
2016,03,30,05,38,5.20
2016,03,30,05,39,5.30
2016,03,30,05,40,5.50
2016,03,30,05,41,5.60
2016,03,30,05,42,5.70
2016,03,30,05,43,5.70
2016,03,30,05,44,5.70
2016,03,30,05,45,5.80
2016,03,30,05,46,5.80
2016,03,30,05,47,5.80
2016,03,30,05,48,5.80
2016,03,30,05,49,5.80
2016,03,30,05,50,5.80
2016,03,30,05,51,5.80
2016,03,30,05,52,5.70
2016,03,30,05,53,5.70
2016,03,30,05,54,5.50
2016,03,30,05,55,5.40
2016,03,30,05,56,5.30
2016,03,30,05,57,5.30
2016,03,30,05,58,5.30
2016,03,30,05,59,5.30
2016,03,30,06,00,5.20
2016,03,30,06,01,5.20
2016,03,30,06,02,5.20
2016,03,30,06,03,5.30
2016,03,30,06,04,5.40
2016,03,30,06,05,5.60
2016,03,30,06,06,5.70
2016,03,30,06,07,5.70
2016,03,30,06,08,5.80
2016,03,30,06,09,5.80
2016,03,30,06,10,5.80
2016,03,30,06,11,5.80
2016,03,30,06,12,5.80
2016,03,30,06,13,5.80
2016,03,30,06,14,5.70
2016,03,30,06,15,5.70
2016,03,30,06,16,5.60
2016,03,30,06,17,5.60
2016,03,30,06,18,5.50
2016,03,30,06,19,5.50
2016,03,30,06,20,5.50
2016,03,30,06,21,5.50
2016,03,30,06,22,5.50
2016,03,30,06,23,5.50
2016,03,30,06,24,5.50
2016,03,30,06,25,5.50
2016,03,30,06,26,5.50
2016,03,30,06,27,5.50
2016,03,30,06,28,5.50
2016,03,30,06,29,5.50
2016,03,30,06,30,5.40
2016,03,30,06,31,5.40
2016,03,30,06,32,5.30
2016,03,30,06,33,5.30
2016,03,30,06,34,5.30
2016,03,30,06,35,5.40
2016,03,30,06,36,5.40
2016,03,30,06,37,5.40
2016,03,30,06,38,5.40
2016,03,30,06,39,5.40
2016,03,30,06,40,5.40
2016,03,30,06,41,5.20
2016,03,30,06,42,5.10
2016,03,30,06,43,5.20
2016,03,30,06,44,5.20
2016,03,30,06,45,5.20
2016,03,30,06,46,5.10
2016,03,30,06,47,5.10
2016,03,30,06,48,5.00
2016,03,30,06,49,4.90
2016,03,30,06,50,4.90
2016,03,30,06,51,4.80
2016,03,30,06,52,4.70
2016,03,30,06,53,4.70
2016,03,30,06,54,4.50
2016,03,30,06,55,4.50
2016,03,30,06,56,4.40
2016,03,30,06,57,4.30
2016,03,30,06,58,4.30
2016,03,30,06,59,4.40
2016,03,30,07,00,4.40
2016,03,30,07,01,4.40
2016,03,30,07,02,4.50
2016,03,30,07,03,4.50
2016,03,30,07,04,4.50
2016,03,30,07,05,4.40
2016,03,30,07,06,4.50
2016,03,30,07,07,4.60
2016,03,30,07,08,4.70
2016,03,30,07,09,4.80
2016,03,30,07,10,4.90
2016,03,30,07,11,5.00
2016,03,30,07,12,5.10
2016,03,30,07,13,5.10
2016,03,30,07,14,5.20
2016,03,30,07,15,5.20
2016,03,30,07,16,5.20
2016,03,30,07,17,5.20
2016,03,30,07,18,5.20
2016,03,30,07,19,5.10
2016,03,30,07,20,5.00
2016,03,30,07,21,4.90
2016,03,30,07,22,4.80
2016,03,30,07,23,4.80
2016,03,30,07,24,4.80
2016,03,30,07,25,4.90
2016,03,30,07,26,4.90
2016,03,30,07,27,4.90
2016,03,30,07,28,4.90
2016,03,30,07,29,4.80
2016,03,30,07,30,4.80
2016,03,30,07,31,4.80
2016,03,30,07,32,4.80
2016,03,30,07,33,4.90
2016,03,30,07,34,5.00
2016,03,30,07,35,5.10
2016,03,30,07,36,5.30
2016,03,30,07,37,5.40
2016,03,30,07,38,5.60
2016,03,30,07,39,5.70
2016,03,30,07,40,5.70
2016,03,30,07,41,5.70
2016,03,30,07,42,5.60
2016,03,30,07,43,5.60
2016,03,30,07,44,5.50
2016,03,30,07,45,5.50
2016,03,30,07,46,5.50
2016,03,30,07,47,5.60
2016,03,30,07,48,5.70
2016,03,30,07,49,5.80
2016,03,30,07,50,5.80
2016,03,30,07,51,5.90
2016,03,30,07,52,6.00
2016,03,30,07,53,6.10
2016,03,30,07,54,6.10
2016,03,30,07,55,6.10
2016,03,30,07,56,6.10
2016,03,30,07,57,6.10
2016,03,30,07,58,6.10
2016,03,30,07,59,6.10
2016,03,30,08,00,6.00
2016,03,30,08,01,6.00
2016,03,30,08,02,6.00
2016,03,30,08,03,6.10
2016,03,30,08,04,6.10
2016,03,30,08,05,6.10
2016,03,30,08,06,6.20
2016,03,30,08,07,6.30
2016,03,30,08,08,6.30
2016,03,30,08,09,6.30
2016,03,30,08,10,6.40
2016,03,30,08,11,6.40
2016,03,30,08,12,6.40
2016,03,30,08,13,6.40
2016,03,30,08,14,6.50
2016,03,30,08,15,6.50
2016,03,30,08,16,6.60
2016,03,30,08,17,6.60
2016,03,30,08,18,6.70
2016,03,30,08,19,6.70
2016,03,30,08,20,6.80
2016,03,30,08,21,6.80
2016,03,30,08,22,6.80
2016,03,30,08,23,6.90
2016,03,30,08,24,6.90
2016,03,30,08,25,7.00
2016,03,30,08,26,7.10
2016,03,30,08,27,7.20
2016,03,30,08,28,7.30
2016,03,30,08,29,7.40
2016,03,30,08,30,7.50
2016,03,30,08,31,7.70
2016,03,30,08,32,7.80
2016,03,30,08,33,7.90
2016,03,30,08,34,7.90
2016,03,30,08,35,8.00
2016,03,30,08,36,8.10
2016,03,30,08,37,8.10
2016,03,30,08,38,8.10
2016,03,30,08,39,8.10
2016,03,30,08,40,8.10
2016,03,30,08,41,8.10
2016,03,30,08,42,8.20
2016,03,30,08,43,8.40
2016,03,30,08,44,8.50
2016,03,30,08,45,8.70
2016,03,30,08,46,8.80
2016,03,30,08,47,9.00
2016,03,30,08,48,9.10
2016,03,30,08,49,9.20
2016,03,30,08,50,9.30
2016,03,30,08,51,9.30
2016,03,30,08,52,9.40
2016,03,30,08,53,9.50
2016,03,30,08,54,9.60
2016,03,30,08,55,9.70
2016,03,30,08,56,9.80
2016,03,30,08,57,9.90
2016,03,30,08,58,10.00
2016,03,30,08,59,10.10
2016,03,30,09,00,10.10
2016,03,30,09,01,10.10
2016,03,30,09,02,10.10
2016,03,30,09,03,10.10
2016,03,30,09,04,10.10
2016,03,30,09,05,10.10
2016,03,30,09,06,10.10
2016,03,30,09,07,10.10
2016,03,30,09,08,10.10
2016,03,30,09,09,10.10
2016,03,30,09,10,10.00
2016,03,30,09,11,10.00
2016,03,30,09,12,10.00
2016,03,30,09,13,10.00
2016,03,30,09,14,10.10
2016,03,30,09,15,10.10
2016,03,30,09,16,10.20
2016,03,30,09,17,10.30
2016,03,30,09,18,10.40
2016,03,30,09,19,10.50
2016,03,30,09,20,10.60
2016,03,30,09,21,10.70
2016,03,30,09,22,10.70
2016,03,30,09,23,10.80
2016,03,30,09,24,10.80
2016,03,30,09,25,10.80
2016,03,30,09,26,10.80
2016,03,30,09,27,10.90
2016,03,30,09,28,11.00
2016,03,30,09,29,11.10
2016,03,30,09,30,11.10
2016,03,30,09,31,11.20
2016,03,30,09,32,11.30
2016,03,30,09,33,11.30
2016,03,30,09,34,11.40
2016,03,30,09,35,11.40
2016,03,30,09,36,11.50
2016,03,30,09,37,11.50
2016,03,30,09,38,11.40
2016,03,30,09,39,11.40
2016,03,30,09,40,11.50
2016,03,30,09,41,11.50
2016,03,30,09,42,11.50
2016,03,30,09,43,11.50
2016,03,30,09,44,11.30
2016,03,30,09,45,11.20
2016,03,30,09,46,11.00
2016,03,30,09,47,10.90
2016,03,30,09,48,10.80
2016,03,30,09,49,10.70
2016,03,30,09,50,10.70
2016,03,30,09,51,10.60
2016,03,30,09,52,10.60
2016,03,30,09,53,10.60
2016,03,30,09,54,10.60
2016,03,30,09,55,10.70
2016,03,30,09,56,10.80
2016,03,30,09,57,10.90
2016,03,30,09,58,11.00
2016,03,30,09,59,11.10
2016,03,30,10,00,11.30
2016,03,30,10,01,11.40
2016,03,30,10,02,11.50
2016,03,30,10,03,11.60
2016,03,30,10,04,11.60
2016,03,30,10,05,11.60
2016,03,30,10,06,11.50
2016,03,30,10,07,11.40
2016,03,30,10,08,11.40
2016,03,30,10,09,11.30
2016,03,30,10,10,11.30
2016,03,30,10,11,11.40
2016,03,30,10,12,11.40
2016,03,30,10,13,11.40
2016,03,30,10,14,11.50
2016,03,30,10,15,11.50
2016,03,30,10,16,11.50
2016,03,30,10,17,11.50
2016,03,30,10,18,11.50
2016,03,30,10,19,11.50
2016,03,30,10,20,11.40
2016,03,30,10,21,11.40
2016,03,30,10,22,11.50
2016,03,30,10,23,11.50
2016,03,30,10,24,11.60
2016,03,30,10,25,11.60
2016,03,30,10,26,11.70
2016,03,30,10,27,11.80
2016,03,30,10,28,11.90
2016,03,30,10,29,12.00
2016,03,30,10,30,12.10
2016,03,30,10,31,12.10
2016,03,30,10,32,12.20
2016,03,30,10,33,12.20
2016,03,30,10,34,12.20
2016,03,30,10,35,12.20
2016,03,30,10,36,12.30
2016,03,30,10,37,12.30
2016,03,30,10,38,12.30
2016,03,30,10,39,12.30
2016,03,30,10,40,12.30
2016,03,30,10,41,12.30
2016,03,30,10,42,12.30
2016,03,30,10,43,12.30
2016,03,30,10,44,12.30
2016,03,30,10,45,12.20
2016,03,30,10,46,12.20
2016,03,30,10,47,12.20
2016,03,30,10,48,12.20
2016,03,30,10,49,12.20
2016,03,30,10,50,12.30
2016,03,30,10,51,12.30
2016,03,30,10,52,12.40
2016,03,30,10,53,12.40
2016,03,30,10,54,12.40
2016,03,30,10,55,12.50
2016,03,30,10,56,12.50
2016,03,30,10,57,12.60
2016,03,30,10,58,12.70
2016,03,30,10,59,12.70
2016,03,30,11,00,12.70
2016,03,30,11,01,12.80
2016,03,30,11,02,12.80
2016,03,30,11,03,12.80
2016,03,30,11,04,12.80
2016,03,30,11,05,12.80
2016,03,30,11,06,12.80
2016,03,30,11,07,12.90
2016,03,30,11,08,12.80
2016,03,30,11,09,12.80
2016,03,30,11,10,12.60
2016,03,30,11,11,12.50
2016,03,30,11,12,12.30
2016,03,30,11,13,12.30
2016,03,30,11,14,12.20
2016,03,30,11,15,12.20
2016,03,30,11,16,12.10
2016,03,30,11,17,12.10
2016,03,30,11,18,12.00
2016,03,30,11,19,11.90
2016,03,30,11,20,11.90
2016,03,30,11,21,11.80
2016,03,30,11,22,11.80
2016,03,30,11,23,11.80
2016,03,30,11,24,11.80
2016,03,30,11,25,11.80
2016,03,30,11,26,11.80
2016,03,30,11,27,11.80
2016,03,30,11,28,11.80
2016,03,30,11,29,11.80
2016,03,30,11,30,11.80
2016,03,30,11,31,11.90
2016,03,30,11,32,11.90
2016,03,30,11,33,11.90
2016,03,30,11,34,11.90
2016,03,30,11,35,11.90
2016,03,30,11,36,12.00
2016,03,30,11,37,12.00
2016,03,30,11,38,12.10
2016,03,30,11,39,12.20
2016,03,30,11,40,12.20
2016,03,30,11,41,12.20
2016,03,30,11,42,12.20
2016,03,30,11,43,12.30
2016,03,30,11,44,12.40
2016,03,30,11,45,12.50
2016,03,30,11,46,12.50
2016,03,30,11,47,12.60
2016,03,30,11,48,12.60
2016,03,30,11,49,12.50
2016,03,30,11,50,12.50
2016,03,30,11,51,12.40
2016,03,30,11,52,12.40
2016,03,30,11,53,12.40
2016,03,30,11,54,12.40
2016,03,30,11,55,12.40
2016,03,30,11,56,12.40
2016,03,30,11,57,12.30
2016,03,30,11,58,12.30
2016,03,30,11,59,12.20
2016,03,30,12,00,12.20
2016,03,30,12,01,12.20
2016,03,30,12,02,12.20
2016,03,30,12,03,12.30
2016,03,30,12,04,12.40
2016,03,30,12,05,12.50
2016,03,30,12,06,12.60
2016,03,30,12,07,12.60
2016,03,30,12,08,12.70
2016,03,30,12,09,12.70
2016,03,30,12,10,12.60
2016,03,30,12,11,12.60
2016,03,30,12,12,12.70
2016,03,30,12,13,12.70
2016,03,30,12,14,12.70
2016,03,30,12,15,12.70
2016,03,30,12,16,12.70
2016,03,30,12,17,12.70
2016,03,30,12,18,12.70
2016,03,30,12,19,12.80
2016,03,30,12,20,12.80
2016,03,30,12,21,12.80
2016,03,30,12,22,12.80
2016,03,30,12,23,12.90
2016,03,30,12,24,12.90
2016,03,30,12,25,12.90
2016,03,30,12,26,13.00
2016,03,30,12,27,13.10
2016,03,30,12,28,13.10
2016,03,30,12,29,13.10
2016,03,30,12,30,13.20
2016,03,30,12,31,13.30
2016,03,30,12,32,13.40
2016,03,30,12,33,13.50
2016,03,30,12,34,13.70
2016,03,30,12,35,13.80
2016,03,30,12,36,13.90
2016,03,30,12,37,14.00
2016,03,30,12,38,14.10
2016,03,30,12,39,14.20
2016,03,30,12,40,14.20
2016,03,30,12,41,14.30
2016,03,30,12,42,14.30
2016,03,30,12,43,14.30
2016,03,30,12,44,14.20
2016,03,30,12,45,14.10
2016,03,30,12,46,14.10
2016,03,30,12,47,14.00
2016,03,30,12,48,13.90
2016,03,30,12,49,13.90
2016,03,30,12,50,13.90
2016,03,30,12,51,13.90
2016,03,30,12,52,13.90
2016,03,30,12,53,14.00
2016,03,30,12,54,14.00
2016,03,30,12,55,14.10
2016,03,30,12,56,14.10
2016,03,30,12,57,14.20
2016,03,30,12,58,14.20
2016,03,30,12,59,14.20
2016,03,30,13,00,14.30
2016,03,30,13,01,14.30
2016,03,30,13,02,14.30
2016,03,30,13,03,14.30
2016,03,30,13,04,14.30
2016,03,30,13,05,14.40
2016,03,30,13,06,14.40
2016,03,30,13,07,14.50
2016,03,30,13,08,14.60
2016,03,30,13,09,14.80
2016,03,30,13,10,14.80
2016,03,30,13,11,14.80
2016,03,30,13,12,14.70
2016,03,30,13,13,14.70
2016,03,30,13,14,14.70
2016,03,30,13,15,14.60
2016,03,30,13,16,14.60
2016,03,30,13,17,14.60
2016,03,30,13,18,14.50
2016,03,30,13,19,14.50
2016,03,30,13,20,14.40
2016,03,30,13,21,14.40
2016,03,30,13,22,14.40
2016,03,30,13,23,14.30
2016,03,30,13,24,14.30
2016,03,30,13,25,14.20
2016,03,30,13,26,14.20
2016,03,30,13,27,14.20
2016,03,30,13,28,14.20
2016,03,30,13,29,14.10
2016,03,30,13,30,14.00
2016,03,30,13,31,13.90
2016,03,30,13,32,13.90
2016,03,30,13,33,13.80
2016,03,30,13,34,13.80
2016,03,30,13,35,13.80
2016,03,30,13,36,13.80
2016,03,30,13,37,13.90
2016,03,30,13,38,13.90
2016,03,30,13,39,14.00
2016,03,30,13,40,14.00
2016,03,30,13,41,14.10
2016,03,30,13,42,14.10
2016,03,30,13,43,14.20
2016,03,30,13,44,14.20
2016,03,30,13,45,14.20
2016,03,30,13,46,14.20
2016,03,30,13,47,14.10
2016,03,30,13,48,14.10
2016,03,30,13,49,14.00
2016,03,30,13,50,13.90
2016,03,30,13,51,13.80
2016,03,30,13,52,13.70
2016,03,30,13,53,13.60
2016,03,30,13,54,13.50
2016,03,30,13,55,13.40
2016,03,30,13,56,13.40
2016,03,30,13,57,13.40
2016,03,30,13,58,13.40
2016,03,30,13,59,13.40
2016,03,30,14,00,13.40
2016,03,30,14,01,13.40
2016,03,30,14,02,13.40
2016,03,30,14,03,13.50
2016,03,30,14,04,13.60
2016,03,30,14,05,13.60
2016,03,30,14,06,13.70
2016,03,30,14,07,13.70
2016,03,30,14,08,13.80
2016,03,30,14,09,13.80
2016,03,30,14,10,13.90
2016,03,30,14,11,14.10
2016,03,30,14,12,14.20
2016,03,30,14,13,14.30
2016,03,30,14,14,14.50
2016,03,30,14,15,14.60
2016,03,30,14,16,14.70
2016,03,30,14,17,14.80
2016,03,30,14,18,14.80
2016,03,30,14,19,14.90
2016,03,30,14,20,15.00
2016,03,30,14,21,15.00
2016,03,30,14,22,15.10
2016,03,30,14,23,15.20
2016,03,30,14,24,15.20
2016,03,30,14,25,15.30
2016,03,30,14,26,15.30
2016,03,30,14,27,15.40
2016,03,30,14,28,15.50
2016,03,30,14,29,15.50
2016,03,30,14,30,15.60
2016,03,30,14,31,15.60
2016,03,30,14,32,15.60
2016,03,30,14,33,15.60
2016,03,30,14,34,15.60
2016,03,30,14,35,15.70
2016,03,30,14,36,15.70
2016,03,30,14,37,15.70
2016,03,30,14,38,15.60
2016,03,30,14,39,15.60
2016,03,30,14,40,15.60
2016,03,30,14,41,15.50
2016,03,30,14,42,15.50
2016,03,30,14,43,15.50
2016,03,30,14,44,15.50
2016,03,30,14,45,15.50
2016,03,30,14,46,15.50
2016,03,30,14,47,15.50
2016,03,30,14,48,15.50
2016,03,30,14,49,15.50
2016,03,30,14,50,15.50
2016,03,30,14,51,15.60
2016,03,30,14,52,15.60
2016,03,30,14,53,15.60
2016,03,30,14,54,15.70
2016,03,30,14,55,15.80
2016,03,30,14,56,15.80
2016,03,30,14,57,15.90
2016,03,30,14,58,15.90
2016,03,30,14,59,15.80
2016,03,30,15,00,15.80
2016,03,30,15,01,15.80
2016,03,30,15,02,15.80
2016,03,30,15,03,15.80
2016,03,30,15,04,15.80
2016,03,30,15,05,15.80
2016,03,30,15,06,15.80
2016,03,30,15,07,15.80
2016,03,30,15,08,15.80
2016,03,30,15,09,15.90
2016,03,30,15,10,15.90
2016,03,30,15,11,15.90
2016,03,30,15,12,15.90
2016,03,30,15,13,16.00
2016,03,30,15,14,16.00
2016,03,30,15,15,16.10
2016,03,30,15,16,16.10
2016,03,30,15,17,16.10
2016,03,30,15,18,16.20
2016,03,30,15,19,16.20
2016,03,30,15,20,16.20
2016,03,30,15,21,16.20
2016,03,30,15,22,16.10
2016,03,30,15,23,16.10
2016,03,30,15,24,16.10
2016,03,30,15,25,16.10
2016,03,30,15,26,16.00
2016,03,30,15,27,16.00
2016,03,30,15,28,16.00
2016,03,30,15,29,15.90
2016,03,30,15,30,15.90
2016,03,30,15,31,15.90
2016,03,30,15,32,16.00
2016,03,30,15,33,16.00
2016,03,30,15,34,16.00
2016,03,30,15,35,16.00
2016,03,30,15,36,16.00
2016,03,30,15,37,15.90
2016,03,30,15,38,15.90
2016,03,30,15,39,15.90
2016,03,30,15,40,15.90
2016,03,30,15,41,15.90
2016,03,30,15,42,15.90
2016,03,30,15,43,15.90
2016,03,30,15,44,16.00
2016,03,30,15,45,16.00
2016,03,30,15,46,16.00
2016,03,30,15,47,15.90
2016,03,30,15,48,15.90
2016,03,30,15,49,15.90
2016,03,30,15,50,15.90
2016,03,30,15,51,15.90
2016,03,30,15,52,15.90
2016,03,30,15,53,15.80
2016,03,30,15,54,15.80
2016,03,30,15,55,15.80
2016,03,30,15,56,15.80
2016,03,30,15,57,15.80
2016,03,30,15,58,15.80
2016,03,30,15,59,15.80
2016,03,30,16,00,15.70
2016,03,30,16,01,15.70
2016,03,30,16,02,15.80
2016,03,30,16,03,15.80
2016,03,30,16,04,15.90
2016,03,30,16,05,15.90
2016,03,30,16,06,16.00
2016,03,30,16,07,16.00
2016,03,30,16,08,16.10
2016,03,30,16,09,16.20
2016,03,30,16,10,16.30
2016,03,30,16,11,16.40
2016,03,30,16,12,16.50
2016,03,30,16,13,16.60
2016,03,30,16,14,16.60
2016,03,30,16,15,16.70
2016,03,30,16,16,16.80
2016,03,30,16,17,16.90
2016,03,30,16,18,16.90
2016,03,30,16,19,17.00
2016,03,30,16,20,17.10
2016,03,30,16,21,17.20
2016,03,30,16,22,17.30
2016,03,30,16,23,17.40
2016,03,30,16,24,17.40
2016,03,30,16,25,17.50
2016,03,30,16,26,17.60
2016,03,30,16,27,17.60
2016,03,30,16,28,17.70
2016,03,30,16,29,17.70
2016,03,30,16,30,17.70
2016,03,30,16,31,17.70
2016,03,30,16,32,17.70
2016,03,30,16,33,17.70
2016,03,30,16,34,17.70
2016,03,30,16,35,17.80
2016,03,30,16,36,17.80
2016,03,30,16,37,17.90
2016,03,30,16,38,17.90
2016,03,30,16,39,18.00
2016,03,30,16,40,18.10
2016,03,30,16,41,18.20
2016,03,30,16,42,18.30
2016,03,30,16,43,18.40
2016,03,30,16,44,18.50
2016,03,30,16,45,18.60
2016,03,30,16,46,18.60
2016,03,30,16,47,18.60
2016,03,30,16,48,18.50
2016,03,30,16,49,18.50
2016,03,30,16,50,18.40
2016,03,30,16,51,18.40
2016,03,30,16,52,18.40
2016,03,30,16,53,18.40
2016,03,30,16,54,18.40
2016,03,30,16,55,18.30
2016,03,30,16,56,18.30
2016,03,30,16,57,18.20
2016,03,30,16,58,18.20
2016,03,30,16,59,18.20
2016,03,30,17,00,18.10
2016,03,30,17,01,18.10
2016,03,30,17,02,18.00
2016,03,30,17,03,17.90
2016,03,30,17,04,17.80
2016,03,30,17,05,17.80
2016,03,30,17,06,17.70
2016,03,30,17,07,17.70
2016,03,30,17,08,17.60
2016,03,30,17,09,17.50
2016,03,30,17,10,17.40
2016,03,30,17,11,17.40
2016,03,30,17,12,17.30
2016,03,30,17,13,17.20
2016,03,30,17,14,17.10
2016,03,30,17,15,17.00
2016,03,30,17,16,17.00
2016,03,30,17,17,16.90
2016,03,30,17,18,16.90
2016,03,30,17,19,16.90
2016,03,30,17,20,16.90
2016,03,30,17,21,17.00
2016,03,30,17,22,17.00
2016,03,30,17,23,16.90
2016,03,30,17,24,16.90
2016,03,30,17,25,16.80
2016,03,30,17,26,16.80
2016,03,30,17,27,16.70
2016,03,30,17,28,16.60
2016,03,30,17,29,16.60
2016,03,30,17,30,16.60
2016,03,30,17,31,16.60
2016,03,30,17,32,16.50
2016,03,30,17,33,16.50
2016,03,30,17,34,16.40
2016,03,30,17,35,16.40
2016,03,30,17,36,16.40
2016,03,30,17,37,16.40
2016,03,30,17,38,16.40
2016,03,30,17,39,16.50
2016,03,30,17,40,16.50
2016,03,30,17,41,16.50
2016,03,30,17,42,16.60